RH
39 14 18 20 45 92 84 78 75 49 20 22 23 36 34 22 22 32 29 25 23 20 20 24 27 28 38 53 46 36 38 50 44 36 47 56 64 59 55 50 47 42 43 45
39 25 54 76 49 47 84 62 47 12 18 22 20 22 24 25 31 36 24 27 27 28 28 31 36 41 42 50 42 48 64 65 46 48 57 63 67 62 60 60 56 51 46 43
23 40 42 30 19 24 21 23 28 23 16 20 20 25 20 25 46 54 51 66 48 34 33 41 46 46 49 42 44 62 63 58 53 56 61 63 63 61 61 58 51 48 48 43
17 18 18 18 18 18 16 15 17 14 15 19 18 27 21 22 21 45 55 81 46 57 51 46 50 49 48 48 55 53 46 58 67 67 66 62 63 63 56 53 53 49 45 38
16 15 15 17 22 21 21 23 21 21 21 21 22 27 90 79 48 44 58 55 81 57 42 31 38 40 40 44 49 54 57 53 54 64 67 65 64 63 61 52 50 45 37 31
21 24 23 21 20 16 14 12 12 12 12 12 23 49 78 90 86 78 75 99 88 93 45 42 43 47 47 49 54 68 75 73 63 56 54 56 52 44 40 35 28 25 26 30
8 11 11 11 12 14 17 19 21 24 59 40 46 84 92 89 65 55 57 59 57 48 51 58 49 45 43 48 57 62 71 75 69 68 62 46 36 30 25 24 26 27 33 38
9 14 16 22 20 22 20 21 21 27 36 48 54 52 80 83 81 88 92 94 86 86 70 65 69 66 66 66 67 68 68 70 63 53 47 39 33 29 29 29 34 42 44 44
18 21 21 22 27 28 30 32 32 33 35 39 45 64 92 95 95 98 99 95 88 89 54 54 67 63 65 66 68 66 52 40 33 30 27 27 27 27 27 32 44 49 50 46
22 24 28 27 30 33 32 32 33 32 33 39 51 68 64 62 76 78 75 98 90 58 58 80 89 83 76 62 47 41 36 31 29 29 28 29 33 38 36 41 50 48 40 25
26 29 34 33 30 25 23 23 26 28 28 32 36 45 54 57 54 59 58 62 62 65 86 88 70 53 49 47 43 40 34 34 32 34 37 39 44 42 40 42 42 28 12 9
34 32 32 28 27 28 24 24 23 25 30 31 32 40 50 51 56 70 99 98 79 90 83 61 61 52 49 48 45 40 37 32 31 31 31 34 44 43 38 35 14 10 10 11
27 27 24 26 28 29 24 21 20 22 24 30 33 47 50 43 47 48 54 70 90 74 52 57 53 52 53 46 43 38 37 36 37 34 42 43 40 37 29 12 10 10 9 10
22 20 19 22 23 21 19 19 20 22 28 25 30 27 42 41 41 52 59 59 52 55 62 58 58 53 45 40 39 38 38 35 38 36 38 35 36 25 9 10 10 10 14 25
16 17 17 17 17 17 16 17 18 18 26 28 29 33 32 42 52 55 57 56 59 60 59 57 51 44 39 37 38 37 41 43 44 43 38 33 17 10 10 10 14 52 65 95
16 16 17 18 18 18 18 18 18 17 21 25 29 35 38 44 55 69 68 62 60 65 56 53 48 47 42 36 38 38 36 41 41 37 33 14 10 11 10 12 29 74 100 100
14 15 16 18 19 19 19 20 18 18 22 23 27 38 44 51 55 50 54 64 68 60 58 53 46 40 36 33 32 33 36 37 37 30 13 10 11 10 10 14 18 32 100 96
14 15 17 20 20 19 19 18 20 19 20 22 31 31 34 51 52 59 67 66 61 58 51 44 39 35 34 36 40 41 39 39 27 11 10 9 8 10 12 14 26 100 100 91
16 17 18 19 19 19 18 18 20 20 20 26 33 34 51 55 62 62 65 63 56 49 42 39 40 45 47 50 47 41 41 27 11 10 8 7 9 12 13 12 17 100 78 85
17 17 18 19 19 18 17 17 19 20 21 23 26 44 51 66 72 72 65 58 52 46 46 47 54 55 54 51 45 43 30 14 10 8 7 10 13 14 14 17 34 74 72 57
17 17 18 20 18 18 19 18 20 21 22 25 33 47 50 61 71 66 56 48 44 42 45 54 54 56 50 49 48 34 16 10 7 6 10 14 17 16 36 80 85 53 57 66
18 18 20 19 19 18 19 19 21 23 26 29 41 49 55 65 69 59 51 49 52 52 54 54 52 52 54 51 39 19 11 8 7 9 13 18 25 59 79 80 64 56 63 64
18 20 21 20 20 23 25 25 23 26 29 41 47 57 70 71 64 57 54 54 49 48 57 57 57 58 54 39 21 13 9 7 9 12 16 24 59 75 80 82 60 58 63 67
19 20 20 21 29 36 36 28 28 30 39 49 60 77 78 72 64 60 54 47 46 62 65 63 63 56 42 25 14 9 7 10 13 14 21 42 72 80 78 89 74 66 67 72
26 24 26 34 37 31 30 32 33 43 55 55 72 84 80 74 68 57 48 53 64 75 76 69 59 46 25 16 10 8 8 12 14 18 25 54 78 72 76 88 76 60 66 77
28 27 29 44 34 36 36 37 48 57 57 73 91 86 79 73 63 56 60 71 82 82 73 63 48 29 18 11 9 8 10 12 13 23 29 60 77 72 78 90 79 64 72 82
Wind_Speed
21 21 19 14 2 3 14 15 14 13 2 3 5 8 17 18 14 15 18 21 24 26 26 28 29 29 29 33 36 36 39 42 45 48 49 51 52 55 57 58 57 57 57 58
17 9 10 8 8 6 14 14 16 10 5 8 11 12 19 20 17 20 17 20 24 27 29 30 31 32 34 35 38 39 42 45 48 49 50 52 54 56 54 54 56 58 60 60
12 11 8 7 5 7 13 13 13 14 9 7 12 15 18 15 16 18 18 21 22 25 27 29 31 35 36 39 41 44 46 47 49 51 51 52 51 50 52 54 56 59 61 61
7 7 7 9 5 10 10 7 12 13 13 12 14 16 22 20 19 22 26 25 29 28 26 25 33 37 40 42 44 45 47 46 47 49 50 50 49 51 53 55 58 60 63 67
6 6 6 5 7 11 10 12 13 15 15 14 16 16 19 27 29 29 29 27 27 24 29 33 36 38 41 41 43 46 48 50 50 47 46 47 49 52 54 57 60 64 68 73
8 7 9 10 11 13 15 16 17 19 19 15 15 17 28 27 29 31 28 18 27 39 41 40 40 41 41 41 41 42 44 47 51 51 52 52 51 53 56 60 66 72 76 79
8 9 10 10 9 11 11 11 11 10 8 11 12 20 22 24 32 35 35 38 40 42 43 42 43 46 46 44 41 42 41 43 47 50 51 54 59 63 67 73 77 80 82 85
9 10 6 5 4 4 6 6 7 6 9 8 14 17 17 20 26 32 36 39 42 39 43 44 46 44 44 43 43 43 44 46 47 50 55 58 63 68 73 79 82 83 85 84
2 3 2 2 4 5 6 8 9 9 9 9 16 18 22 23 29 35 34 40 44 41 47 41 38 38 37 37 40 42 44 46 51 56 61 66 72 76 80 84 85 84 81 81
2 2 2 2 3 5 7 9 11 12 13 9 12 25 29 32 34 36 41 33 46 49 42 37 37 39 40 41 42 46 51 56 60 65 71 76 80 83 86 86 83 81 81 81
3 2 2 4 5 5 9 13 16 18 19 17 11 20 26 34 35 39 40 42 41 37 36 34 34 37 39 42 46 51 56 62 67 70 75 80 84 87 88 86 81 82 82 82
5 4 4 2 2 7 10 14 17 21 22 23 24 14 24 30 32 34 32 35 36 36 32 33 37 40 44 49 53 58 62 67 72 76 81 84 86 87 85 79 78 80 83 82
5 3 1 4 4 6 12 18 23 27 29 23 26 20 26 32 29 33 29 30 31 33 35 37 41 43 48 52 56 62 67 72 76 80 84 87 88 89 90 89 90 91 89 85
4 5 7 8 9 13 18 21 25 30 33 32 27 30 27 34 31 25 25 27 34 35 38 41 44 49 53 57 62 68 72 77 81 86 88 90 90 90 88 91 90 87 83 74
7 8 11 13 15 18 21 23 26 29 32 34 33 33 35 31 25 30 31 33 35 37 42 45 49 54 58 62 68 73 77 80 84 87 89 91 89 89 91 86 82 76 65 65
11 12 15 16 17 20 22 24 27 28 32 33 35 34 35 31 27 28 33 35 36 41 45 49 53 57 62 68 72 76 81 86 89 90 93 90 89 89 84 77 64 53 54 62
16 17 19 19 21 24 26 27 29 32 34 38 38 36 33 31 31 33 33 35 40 44 48 53 57 63 68 73 78 83 86 89 90 90 90 90 88 85 80 72 67 59 54 60
20 21 23 23 25 27 31 32 32 34 37 38 40 40 41 36 38 38 38 42 46 50 54 58 63 69 74 78 81 84 87 88 89 89 91 90 85 77 71 66 55 39 49 56
23 26 27 28 29 31 34 36 35 38 38 39 39 42 42 42 42 43 46 50 52 55 59 64 69 73 76 78 82 86 89 88 88 90 90 87 76 69 64 55 42 32 48 32
27 29 30 32 34 37 40 41 42 42 40 43 41 43 43 41 41 43 46 49 52 58 62 66 70 74 78 82 85 89 88 87 89 90 87 79 70 60 46 34 21 20 23 29
32 33 34 35 38 40 41 45 45 43 44 46 46 46 47 45 44 46 49 52 57 61 66 69 73 78 82 84 86 88 88 89 90 87 77 66 55 42 26 23 22 23 27 32
35 36 36 39 41 42 44 47 46 44 46 47 49 51 50 47 47 49 54 58 61 65 68 72 76 80 83 84 87 86 87 89 86 77 64 50 37 25 27 24 22 26 30 34
38 39 40 41 42 42 48 50 49 48 49 49 53 53 51 48 50 54 59 62 65 68 72 75 78 80 82 85 85 87 89 85 76 62 49 38 27 27 28 25 25 29 33 36
41 42 43 44 45 46 51 51 50 50 51 53 55 53 50 52 55 59 62 65 67 70 74 77 79 81 82 84 85 87 83 72 61 50 40 30 26 27 29 26 27 31 35 37
39 43 42 45 45 49 51 51 53 51 52 55 54 51 52 56 59 62 65 66 69 72 74 76 78 80 81 82 83 82 75 61 51 40 34 27 26 27 27 26 28 31 35 36
37 40 40 45 47 46 49 52 50 52 56 57 53 54 56 59 62 65 66 68 71 73 74 76 78 80 80 82 81 76 64 52 42 34 30 26 26 28 26 26 28 31 34 36
Wind_Direction
151 156 160 162 182 134 155 145 198 250 356 285 267 253 272 294 316 301 279 281 293 296 306 308 308 304 303 301 302 303 303 303 303 307 308 308 308 310 310 311 312 312 311 310
159 174 170 192 187 206 192 198 230 270 307 278 273 258 264 272 281 273 273 284 295 300 302 300 301 299 297 293 297 298 297 299 304 305 305 305 306 307 309 309 308 306 307 308
163 161 162 195 173 207 222 227 243 265 266 256 268 279 273 273 276 276 283 292 293 293 293 295 292 289 288 292 294 294 298 300 302 302 303 304 305 306 306 305 306 309 308 306
168 176 177 218 199 243 255 258 256 266 275 274 281 270 284 290 277 273 281 282 291 289 285 285 284 288 290 291 293 296 298 297 297 299 302 303 305 305 304 306 306 305 306 305
203 200 218 247 230 253 265 260 266 267 271 271 289 280 269 276 284 277 279 290 278 278 288 286 286 289 291 295 299 298 298 301 300 298 299 301 302 302 304 305 306 305 305 304
207 217 243 249 261 267 275 275 276 275 271 271 255 248 266 275 284 289 285 279 266 291 296 296 298 298 299 298 296 296 296 298 302 307 307 306 304 305 305 305 305 304 303 301
235 243 254 262 274 283 285 291 286 280 268 252 245 242 253 266 280 284 285 286 287 292 297 298 299 302 299 299 297 295 298 297 300 302 305 308 311 312 311 309 305 304 303 302
226 233 235 251 266 273 296 312 311 297 282 288 290 292 281 283 276 281 287 286 289 292 298 296 301 296 299 301 303 303 303 305 309 311 311 310 308 308 306 305 305 305 303 301
191 182 177 285 318 331 330 322 314 305 292 284 265 261 270 273 270 274 282 286 291 290 298 303 303 302 301 300 305 308 310 312 313 314 314 311 310 309 308 308 307 307 305 303
173 202 267 333 10 19 5 349 342 329 324 305 266 271 270 275 271 272 280 277 283 298 311 313 309 309 311 315 315 317 318 319 317 316 314 312 310 309 309 309 310 308 306 306
184 193 140 103 95 39 16 10 12 356 343 330 305 277 283 279 278 277 283 290 297 309 313 309 309 315 315 314 315 315 318 316 315 312 309 309 309 309 311 312 311 307 307 307
164 148 132 116 36 11 7 360 354 356 348 331 319 318 284 285 283 287 291 294 305 311 305 310 314 314 318 318 317 314 314 313 312 312 310 309 310 310 311 312 308 307 309 310
173 195 269 300 297 327 336 345 345 347 351 344 328 314 300 298 293 297 301 308 307 302 313 316 311 315 315 314 313 312 311 311 310 310 310 310 313 313 315 316 316 314 313 314
208 266 296 315 325 326 332 335 335 337 342 345 337 326 305 302 310 308 310 304 307 312 311 310 313 315 314 313 313 313 312 313 312 312 313 316 316 317 317 315 316 315 314 315
254 277 294 306 312 315 320 323 321 327 334 339 335 323 316 321 312 310 309 306 310 310 312 314 314 314 314 314 315 315 315 313 313 315 316 316 318 318 317 317 316 313 314 310
260 274 285 297 306 310 315 316 317 320 326 334 331 325 323 321 317 303 299 306 310 309 312 312 311 313 316 317 316 315 316 317 316 317 318 319 318 317 316 315 306 314 298 296
267 275 284 291 300 306 311 313 319 320 324 331 331 328 324 318 307 305 310 310 307 308 309 311 314 317 318 317 320 320 318 317 318 318 318 318 317 317 314 312 312 313 291 297
273 279 286 293 300 306 309 315 318 319 319 326 326 328 328 317 313 314 313 310 312 313 314 316 316 317 319 320 319 316 316 318 320 318 318 318 316 315 313 312 311 310 289 302
278 284 289 295 300 305 307 311 311 317 319 321 323 325 322 317 313 315 314 315 315 316 317 316 318 318 317 315 315 317 319 320 319 319 317 316 317 316 315 315 314 267 288 309
277 282 289 295 300 306 309 311 313 315 317 316 318 321 318 315 310 309 311 312 313 313 315 316 316 315 315 317 319 319 320 319 319 317 319 320 320 320 321 324 332 327 329 324
278 283 289 295 300 305 306 306 310 312 315 314 316 318 318 313 311 312 313 314 314 314 317 318 316 317 318 319 319 320 320 319 319 321 322 320 320 323 330 334 333 333 330 327
277 283 289 294 298 302 302 305 306 310 308 311 315 317 316 313 312 313 313 315 315 316 317 317 318 319 318 318 318 319 319 320 322 322 321 321 320 325 326 327 328 329 332 332
280 284 292 295 297 300 302 303 306 308 310 312 314 314 312 311 311 313 316 315 316 318 318 317 317 317 317 318 319 320 322 323 322 323 322 322 318 320 322 323 323 329 331 334
281 288 291 294 298 300 299 305 306 306 309 312 313 311 309 310 313 315 315 316 318 317 315 316 316 317 318 319 320 322 324 323 322 323 322 318 315 319 321 318 321 328 331 334
288 291 293 296 297 295 301 301 304 307 308 310 310 308 308 311 312 313 314 316 315 313 313 315 316 317 318 319 322 323 324 321 322 320 319 314 315 318 321 319 319 325 329 332
291 290 291 292 292 295 295 297 300 303 307 309 307 307 309 310 311 313 314 313 312 312 314 315 316 318 319 321 323 325 323 319 318 317 316 310 312 315 320 320 320 324 328 332